Lid_Strength_Index
6 7 9 8 8 9 9 10 10 9 7 8 8 8 7 6 6 6 6 6 6 5 3 3 2 1 1 1 0 0 0 0 0 1 1 1 1 1 -0 -0 -0 -1 -1 -1
8 9 7 7 8 9 9 10 10 9 8 8 7 8 6 6 5 5 5 6 6 5 4 3 2 1 1 1 1 0 0 -0 1 1 -0 1 0 0 0 -0 -0 -1 -1 -1
8 7 7 7 8 9 9 9 9 9 8 8 8 9 8 6 6 5 5 5 5 5 5 4 3 2 1 1 1 1 0 0 1 -0 0 0 -0 0 1 1 1 0 -1 -0
7 7 7 8 8 8 10 7 8 9 9 12 9 13 9 7 7 6 5 6 6 5 5 3 3 2 2 1 1 1 1 0 1 -0 0 1 2 2 1 1 0 0 -1 -0
8 8 8 9 8 7 8 7 8 8 10 10 10 11 9 8 8 6 5 6 6 6 5 4 3 2 1 1 1 0 1 0 0 0 0 1 1 1 0 0 1 0 -0 -0
7 6 6 7 6 6 6 8 9 9 10 13 10 11 10 9 7 6 6 6 7 6 5 3 2 2 2 1 1 0 1 1 0 0 0 0 1 1 2 1 1 1 1 -0
8 8 6 6 8 7 7 9 13 14 14 14 10 11 9 7 6 6 6 6 7 6 6 4 3 2 2 2 1 1 1 1 1 1 0 0 1 0 1 2 2 2 1 1
12 13 8 7 7 8 8 9 12 17 15 13 11 12 9 6 6 6 5 5 6 7 5 3 3 2 2 2 1 1 2 1 1 1 0 -0 1 2 1 1 1 1 1 1
11 11 7 7 6 6 9 10 8 11 11 13 11 10 7 7 7 6 7 7 7 6 4 3 3 2 2 2 1 1 1 1 1 1 0 0 1 1 1 0 1 0 0 0
9 11 8 7 6 7 7 7 11 10 15 17 12 12 11 8 7 7 7 7 7 6 4 3 3 2 2 1 1 1 1 1 1 1 -0 0 0 1 0 0 1 0 -0 1
7 8 10 8 9 9 9 9 9 9 11 14 15 12 7 8 7 8 7 6 7 6 5 4 3 2 2 1 1 1 1 1 1 0 0 -0 0 0 -0 0 0 1 0 0
7 9 11 10 7 6 7 8 8 12 13 11 12 12 6 7 7 6 7 6 6 5 5 4 3 2 2 2 1 1 1 1 1 0 0 0 0 0 0 0 -0 -0 -0 -0
7 10 13 11 10 9 9 8 8 9 9 12 13 12 7 7 7 6 6 6 7 6 5 4 3 3 2 2 2 1 1 1 1 0 0 0 0 0 0 0 0 -0 -0 0
6 9 11 13 11 9 11 10 9 9 12 11 11 10 8 8 7 6 6 5 6 6 5 4 3 3 2 2 2 2 1 1 1 1 1 1 0 0 1 0 0 0 -0 -0
7 11 9 8 8 9 9 9 10 10 9 11 10 10 8 7 7 6 5 6 6 6 5 5 4 3 2 2 2 1 1 1 1 1 1 1 1 0 -0 0 1 0 -0 -0
8 10 9 10 9 8 9 8 9 9 9 9 8 9 6 6 5 6 6 6 6 6 5 4 4 4 3 2 2 2 1 1 1 1 1 1 0 0 0 0 0 0 0 0
9 10 11 12 9 9 12 9 8 9 8 8 10 8 6 7 7 6 6 5 5 5 6 5 5 4 3 2 2 2 1 1 1 1 1 1 0 1 0 0 0 0 0 -0
10 10 11 12 11 17 10 6 7 8 8 7 7 6 6 6 5 5 4 5 5 5 5 5 4 3 2 1 1 1 1 1 1 1 1 1 1 1 0 0 0 0 0 0
8 9 13 15 14 11 10 9 8 9 9 7 7 6 6 5 5 5 4 4 4 4 3 3 3 3 2 2 1 1 1 1 1 1 1 1 1 1 1 1 1 0 0 0
8 8 10 15 16 16 9 8 6 6 11 6 6 6 6 6 8 6 4 3 3 3 3 3 3 3 3 2 1 1 2 1 2 1 1 1 0 1 1 0 0 1 0 0
11 11 13 13 15 12 8 7 6 13 10 6 6 6 6 7 6 4 3 3 3 3 3 3 3 3 3 2 1 2 2 2 1 1 0 1 0 0 0 0 0 0 1 1
11 12 12 12 14 15 7 7 10 7 6 5 6 5 6 5 4 4 4 3 3 3 3 3 4 4 2 2 2 2 2 1 1 0 1 1 0 1 0 0 0 0 1 1
13 9 10 10 10 7 6 6 5 5 5 5 5 5 5 5 5 4 4 3 3 3 3 3 3 3 3 2 1 2 2 1 1 1 1 1 1 0 0 1 1 1 1 1
8 7 10 9 7 7 6 5 5 5 5 5 4 4 4 5 4 4 4 3 3 3 3 3 3 3 3 3 2 2 1 1 1 1 1 1 1 1 1 1 0 1 1 1
9 7 9 9 7 7 6 5 5 4 4 4 4 4 4 4 4 4 4 3 3 3 2 3 3 3 3 3 3 2 1 2 1 1 1 1 1 1 1 1 0 1 0 1
7 7 9 10 6 7 6 5 4 5 5 4 4 4 4 3 4 3 3 3 3 3 2 2 3 3 3 3 3 2 2 1 1 2 1 1 1 1 1 1 1 6 7 8